📊 Raw Sensor Data

Showing records 44876 to 44900 of 85,043 total

ID Distance (ft) Battery V Battery A Int Temp (°F) Int Humid (%) Ext Temp (°F) Solar V RSSI SNR Time Stamp
40180 16.5 3.97 25 61 40 72 4.50 -68 8 05/10/2025 07:15 AM
40179 16.3 3.98 10 57 40 68 4.50 -68 8 05/10/2025 07:00 AM
40178 -- 3.91 0 54 42 64 4.50 -70 8 05/10/2025 06:45 AM
40177 16.3 3.89 -5 52 42 57 4.50 -68 8 05/10/2025 06:30 AM
40176 16.2 3.89 -7 51 42 54 4.50 -68 8 05/10/2025 06:15 AM
40175 16.2 3.89 -10 51 42 52 3.20 -69 8 05/10/2025 06:00 AM
40174 16.2 3.90 -5 52 42 55 0.60 -68 8 05/10/2025 05:45 AM
40173 16.3 3.95 -5 54 42 57 0.10 -69 8 05/10/2025 05:30 AM
40172 16.1 3.92 -5 70 51 72 0.00 -69 8 05/09/2025 09:00 PM
40171 16.2 3.98 -5 72 53 70 0.10 -68 8 05/09/2025 08:45 PM
40170 16.2 3.92 -5 75 55 73 0.00 -68 7 05/09/2025 08:30 PM
40169 16.3 3.92 -5 78 57 74 0.80 -69 8 05/09/2025 08:15 PM
40168 16.4 3.91 -20 85 56 79 3.40 -69 8 05/09/2025 08:00 PM
40167 16.4 3.99 0 92 52 84 4.50 -69 8 05/09/2025 07:45 PM
40166 -- 4.00 0 96 51 89 4.50 -69 8 05/09/2025 07:30 PM
40165 -- 4.01 8 98 50 89 4.60 -69 9 05/09/2025 07:15 PM
40164 16.4 3.97 -11 99 50 90 4.60 -69 8 05/09/2025 07:00 PM
40163 -- 4.00 0 101 49 93 4.50 -69 8 05/09/2025 06:45 PM
40162 16.4 3.97 0 101 49 91 5.10 -68 8 05/09/2025 06:30 PM
40161 -- 3.97 0 102 49 92 5.10 -69 8 05/09/2025 06:15 PM
40160 -- 3.97 0 103 49 92 5.10 -69 8 05/09/2025 06:01 PM
40159 -- 3.97 0 105 48 93 5.10 -69 8 05/09/2025 05:45 PM
40158 -- 3.97 0 108 46 96 5.10 -69 8 05/09/2025 05:31 PM
40157 -- 3.97 0 106 46 95 5.10 -68 8 05/09/2025 05:15 PM
40156 16.4 4.13 0 107 46 97 5.10 -69 8 05/09/2025 05:00 PM